TimeMDT,TemperatureF,Dew PointF,Humidity,Sea Level PressureIn,VisibilityMPH,Wind Direction,Wind SpeedMPH,Gust SpeedMPH,PrecipitationIn,Events,Conditions,WindDirDegrees,DateUTC
12:53 AM,35.1,23.0,61,29.95,10.0,Calm,Calm,-,N/A,,Clear,0,2012-10-09 06:53:00
2:53 AM,34.0,24.1,67,29.93,10.0,Calm,Calm,-,N/A,,Clear,0,2012-10-09 08:53:00
3:53 AM,32.0,21.0,64,29.94,10.0,Calm,Calm,-,N/A,,Clear,0,2012-10-09 09:53:00
4:53 AM,33.1,24.1,70,29.94,10.0,SW,3.5,-,N/A,,Clear,220,2012-10-09 10:53:00
5:53 AM,28.9,21.0,72,29.96,10.0,Calm,Calm,-,N/A,,Clear,0,2012-10-09 11:53:00
6:53 AM,28.0,21.9,78,30.01,10.0,WSW,5.8,-,N/A,,Clear,240,2012-10-09 12:53:00
7:53 AM,28.9,23.0,78,30.05,10.0,Calm,Calm,-,N/A,,Clear,0,2012-10-09 13:53:00
8:53 AM,39.0,28.0,65,30.06,10.0,Calm,Calm,-,N/A,,Clear,0,2012-10-09 14:53:00
9:53 AM,52.0,28.0,40,30.01,10.0,Calm,Calm,-,N/A,,Clear,0,2012-10-09 15:53:00
10:53 AM,57.9,26.1,30,29.99,10.0,Calm,Calm,-,N/A,,Clear,0,2012-10-09 16:53:00
11:53 AM,59.0,28.0,31,30.00,10.0,South,8.1,-,N/A,,Clear,180,2012-10-09 17:53:00
12:53 PM,61.0,28.9,30,29.97,10.0,South,8.1,-,N/A,,Clear,180,2012-10-09 18:53:00
1:53 PM,63.0,32.0,31,29.95,10.0,SE,10.4,-,N/A,,Clear,140,2012-10-09 19:53:00
2:53 PM,64.0,32.0,30,29.93,10.0,East,8.1,17.3,N/A,,Clear,100,2012-10-09 20:53:00
3:53 PM,62.1,30.0,30,29.94,10.0,SE,8.1,-,N/A,,Clear,130,2012-10-09 21:53:00
4:53 PM,62.1,28.9,29,29.92,10.0,ESE,6.9,-,N/A,,Partly Cloudy,120,2012-10-09 22:53:00
5:53 PM,63.0,28.0,27,29.94,10.0,ESE,8.1,-,N/A,,Clear,120,2012-10-09 23:53:00
6:53 PM,61.0,27.0,27,29.96,10.0,SW,9.2,-,N/A,,Mostly Cloudy,230,2012-10-10 00:53:00
7:53 PM,52.0,26.1,37,30.01,10.0,WSW,9.2,-,N/A,,Scattered Clouds,250,2012-10-10 01:53:00
8:53 PM,45.0,26.1,48,30.03,10.0,SSW,3.5,-,N/A,,Clear,200,2012-10-10 02:53:00
9:53 PM,41.0,25.0,53,29.99,10.0,West,5.8,-,N/A,,Clear,260,2012-10-10 03:53:00
10:53 PM,41.0,26.1,55,29.97,10.0,West,4.6,-,N/A,,Clear,280,2012-10-10 04:53:00
11:53 PM,39.9,26.1,58,29.97,10.0,West,6.9,-,N/A,,Clear,270,2012-10-10 05:53:00